Location: Karlovy Vary
(50.2170°N, 12.9000°E)
Time: 15:31:47
(UTC+01:00)

N. Korean satellite - Visible Passes

Search period start: 27 November 2020 00:00
Search period end: 07 December 2020 00:00
Orbit: 452 x 504 km, 97.2° (Epoch: 26 November)

Date Brightness Start Highest point End Pass type
(mag) Time Alt. Az. Time Alt. Az. Time Alt. Az.
27 Nov 8.1 05:19:23 10° NNE 05:22:45 38° E 05:26:09 10° SSE visible
27 Nov 7.9 06:53:16 10° NNW 06:55:53 19° WNW 06:58:31 10° WSW visible
27 Nov 9.2 17:32:47 10° SSW 17:35:30 22° W 17:38:17 10° NW visible
28 Nov 9.3 04:53:35 10° NE 04:56:20 20° E 04:59:04 10° SE visible
28 Nov 7.1 06:26:28 10° N 06:29:46 35° WNW 06:33:05 10° SW visible
28 Nov 7.8 17:05:48 10° S 17:09:05 44° W 17:12:25 10° NNW visible
29 Nov 10.1 04:28:49 10° ENE 04:29:47 11° E 04:30:45 10° ESE visible
29 Nov 6.4 05:59:58 10° N 06:03:34 70° WNW 06:07:10 10° SSW visible
30 Nov 7.2 05:33:41 10° NNE 05:37:15 57° E 05:40:50 10° S visible
30 Nov 9.7 17:47:53 10° SW 17:50:03 16° W 17:52:14 10° NW visible
01 Dec 8.6 05:07:39 10° NE 05:10:50 29° E 05:14:03 10° SSE visible
01 Dec 7.6 06:41:06 10° N 06:44:06 25° WNW 06:47:08 10° WSW visible
01 Dec 8.6 17:20:29 10° SSW 17:23:32 30° W 17:26:38 10° NNW visible
02 Dec 9.7 04:42:04 10° NE 04:44:20 16° E 04:46:36 10° SE visible
02 Dec 6.8 06:14:26 10° N 06:17:55 47° WNW 06:21:26 10° SW visible
02 Dec 7.1 16:53:43 10° S 16:57:06 62° WSW 17:00:34 10° NNW visible
03 Dec 6.6 05:47:59 10° NNE 05:51:39 85° ESE 05:55:18 10° SSW visible
03 Dec 10.0 18:03:30 10° WSW 18:04:32 11° W 18:05:36 10° WNW visible
04 Dec 7.9 05:21:47 10° NNE 05:25:15 41° E 05:28:45 10° S visible
04 Dec 8.0 06:55:44 10° NNW 06:58:20 19° WNW 07:00:57 10° WSW visible
04 Dec 9.3 17:35:15 10° SW 17:37:57 21° W 17:40:40 10° NW visible
05 Dec 9.1 04:55:52 10° NE 04:58:46 22° E 05:01:41 10° SE visible
05 Dec 7.2 06:28:52 10° N 06:32:10 33° WNW 06:35:30 10° SW visible
05 Dec 8.0 17:08:09 10° S 17:11:26 41° W 17:14:46 10° NNW visible
06 Dec 10.0 04:30:45 10° ENE 04:32:11 12° E 04:33:38 10° ESE visible
06 Dec 6.5 06:02:18 10° N 06:05:56 65° WNW 06:09:34 10° SSW visible
06 Dec 6.5 16:41:34 10° SSE 16:45:01 88° WSW 16:48:33 10° NNW visible
